Spokane, WA
on Monday, November 26, 2012

Monday
Previous Day Next Day
Daily Summary
 ActualAverageRecord
Temperature
Mean Temperature °F 32°F  
Max Temperature 36°F 37°F 57°F (1949)
Min Temperature 26°F 27°F 2°F (1993)
Degree Days
Heating Degree Days 34 33  
Month to date heating degree days 671 742  
Since 1 July heating degree days 1277 1530  
Cooling Degree Days 0 0  
Month to date cooling degree days 0 0  
Year to date cooling degree days 535 450  
Moisture
Dew Point 27°F   
Average Humidity 88    
Maximum Humidity 100    
Minimum Humidity 75    
Precipitation
Precipitation 0.00 in 0.08 in 0.69 in (1899)
Month to date precipitation 2.85 1.96  
Year to date precipitation 18.35 13.92  
Snow
Snow 0.00 in 0.40 in 3.80 in (1989)
Month to date snowfall 5.9 5.8  
Since 1 July snowfall 5.9 5.9  
Since 1 September snowfall 5.9 5.9  
Snow Depth 0.00 in   
Wind
Wind Speed 5 mph   
Max Wind Speed 9 mph   
Max Gust Speed 12 mph   
Visibility 5 miles   
Events Fog   

Key: T is trace of precipitation, MM is missing value
Source: NWS Daily Summary
Time(PST)TemperatureDew PointHumidity Pressure Visibility Wind DirectionWind SpeedGust SpeedPrecipitationEvents Conditions
12:26 AM 26.6°F 26.6°F 100% 30.29 in 0.8 miles NE 5.8 mph - N/A   Mostly Cloudy
12:31 AM 26.6°F 26.6°F 100% 30.30 in 0.1 miles NE 5.8 mph - N/A Fog Light Freezing Fog
12:53 AM 27.0°F 26.1°F 96% 30.36 in 0.1 miles NNE 5.8 mph - N/A Fog Light Freezing Fog
1:53 AM 27.0°F 26.1°F 96% 30.36 in 0.1 miles NE 4.6 mph - N/A Fog Light Freezing Fog
2:53 AM 27.0°F 26.1°F 96% 30.36 in 0.1 miles NE 3.5 mph - N/A Fog Light Freezing Fog
3:53 AM 26.1°F 25.0°F 96% 30.34 in 0.1 miles ENE 4.6 mph - N/A Fog Light Freezing Fog
4:53 AM 26.1°F 25.0°F 96% 30.34 in 0.1 miles NE 5.8 mph - N/A Fog Light Freezing Fog
5:53 AM 27.0°F 26.1°F 96% 30.34 in 0.1 miles NE 8.1 mph - N/A Fog Light Freezing Fog
6:53 AM 28.0°F 26.1°F 92% 30.33 in 0.1 miles NE 9.2 mph - N/A Fog Light Freezing Fog
7:53 AM 28.9°F 26.1°F 89% 30.33 in 0.1 miles NNE 9.2 mph - N/A Fog Light Freezing Fog
8:53 AM 28.9°F 26.1°F 89% 30.33 in 0.1 miles NNE 5.8 mph - N/A Fog Light Freezing Fog
9:46 AM 30.2°F 26.6°F 86% 30.25 in 0.5 miles NE 8.1 mph - N/A   Overcast
9:53 AM 30.0°F 27.0°F 88% 30.32 in 0.5 miles NE 8.1 mph - N/A   Overcast
10:36 AM 30.2°F 28.4°F 93% 30.23 in 1.0 miles NE 6.9 mph - N/A   Mostly Cloudy
10:53 AM 30.0°F 28.0°F 92% 30.29 in 1.5 miles ENE 6.9 mph - N/A   Mostly Cloudy
11:53 AM 30.9°F 28.9°F 92% 30.28 in 1.5 miles North 4.6 mph - N/A   Mostly Cloudy
12:00 PM 30.2°F 30.2°F 100% 30.20 in 8.0 miles North 4.6 mph - N/A   Mostly Cloudy
12:53 PM 32.0°F 30.0°F 92% 30.26 in 10.0 miles NNE 4.6 mph - N/A   Mostly Cloudy
1:53 PM 33.1°F 30.0°F 89% 30.25 in 10.0 miles NNE 5.8 mph - N/A   Mostly Cloudy
2:53 PM 35.1°F 28.9°F 78% 30.23 in 10.0 miles NE 4.6 mph - N/A   Mostly Cloudy
3:53 PM 33.1°F 28.9°F 85% 30.23 in 10.0 miles NE 3.5 mph - N/A   Mostly Cloudy
4:53 PM 30.9°F 28.9°F 92% 30.23 in 10.0 miles NNE 3.5 mph - N/A   Scattered Clouds
5:53 PM 30.9°F 28.9°F 92% 30.24 in 10.0 miles Calm Calm - N/A   Scattered Clouds
6:53 PM 30.0°F 28.0°F 92% 30.23 in 10.0 miles NNE 3.5 mph - N/A   Mostly Cloudy
7:53 PM 28.9°F 27.0°F 92% 30.24 in 10.0 miles Calm Calm - N/A   Scattered Clouds
8:53 PM 28.9°F 27.0°F 92% 30.25 in 10.0 miles Calm Calm - N/A   Mostly Cloudy
9:53 PM 28.9°F 28.0°F 96% 30.26 in 10.0 miles NE 3.5 mph - N/A   Overcast
10:53 PM 28.9°F 28.0°F 96% 30.25 in 10.0 miles North 3.5 mph - N/A   Overcast
11:53 PM 30.0°F 28.0°F 92% 30.24 in 10.0 miles NE 4.6 mph - N/A   Overcast
Moon Phase
Nov. 26 Nov. 28 Dec. 06 Dec. 13 Dec. 20
Sunrise:07:11 AM (PST) Moon Rise:03:01 PM (PST)11/26
Sunset:04:03 PM (PST) Moon Set:05:21 AM (PST)11/26

Copyright © 2014 The Weather Underground, Inc.